Latest Coastal Weather Observations for Orbost

IDV60701

Issued at 10:01 pm EST Tuesday 1 September 2015 (issued every 10 minutes, with the page automatically refreshed every 10 minutes)

About coastal observations | Map of coastal stations | Coastal observations for VIC | Marine services | Other Formats
Station Details ID: 084145 Name: ORBOST Lat: -37.69 Lon: 148.47 Height: 62.65 m
Data from the previous 72 hours. | See also: Recent months at Orbost
Date/Time
EST
Temp

°C
Wind Pressure Rain
since 9am
mm
Weather Cloud Vis
km
Sea
Height
m
Swell
Dir
 
Speed
knots
Gust
knots
hPa Trend Height
m
Period
s
Dir
01/10:00pm 4.5 E 1 1 1016.0 - - - - - - - - -
01/09:30pm 4.1 E 2 2 1016.0 - - - - - - - - -
01/09:00pm 4.1 N 2 3 1015.9 - - - - - - - - -
01/08:30pm 5.1 NNE 2 3 1015.7 - - - - - - - - -
01/08:00pm 5.3 NE 4 4 1015.3 - - - - - - - - -
01/07:30pm 5.7 NE 2 3 1015.4 - - - - - - - - -
01/07:00pm 6.3 NNE 3 4 1015.4 - - - - - - - - -
01/06:30pm 6.5 CALM 0 2 1015.3 - - - - - - - - -
01/06:00pm 8.3 SSE 1 2 1014.8 - - - - - - - - -
01/05:30pm 9.6 SSE 1 2 1014.8 - - - - - - - - -
01/05:00pm 10.3 S 4 5 1014.8 - - - - - - - - -
01/04:30pm 10.9 - - - 1014.9 - - - - - - - - -
01/10:00am 10.2 NW 4 7 1016.9 - 0.0 - - - - - - -
01/09:30am 9.9 WNW 5 8 1017.2 - 0.0 - - - - - - -
01/09:00am 9.4 NW 5 6 1017.3 - 0.2 - - - - - - -
01/08:30am 8.9 NW 4 6 1017.4 - 0.2 - - - - - - -
01/08:00am 7.5 NNW 4 5 1017.4 - 0.2 - - - - - - -
01/07:30am 6.2 NNW 3 5 1017.2 - 0.2 - - - - - - -
01/07:00am 5.5 NNW 4 5 1017.0 - 0.2 - - - - - - -
01/06:30am 5.2 NNW 3 4 1016.8 - 0.2 - - - - - - -
01/06:00am 5.4 NNW 3 4 1016.8 - 0.2 Rain - - - - - -
01/05:30am 5.4 NNW 4 4 1016.9 - 0.0 - - - - - - -
01/05:00am 5.3 NNW 3 5 1016.7 - 0.0 - - - - - - -
01/04:30am 5.9 NW 3 6 1016.6 - 0.0 - - - - - - -
01/04:00am 6.0 NW 3 5 1016.7 - 0.0 - - - - - - -
01/03:30am 6.6 NW 3 5 1016.7 - 0.0 - - - - - - -
01/03:00am 6.9 NW 4 6 1016.7 - 0.0 - - - - - - -
01/02:30am 7.2 NW 3 4 1016.9 - 0.0 - - - - - - -
01/02:00am 6.9 NNW 3 4 1017.1 - 0.0 - - - - - - -
01/01:30am 5.9 NW 2 3 1017.5 - 0.0 - - - - - - -
01/01:00am 5.6 NNW 4 5 1017.5 - 0.0 - - - - - - -
01/12:30am 6.1 NNW 2 3 1017.7 - 0.0 - - - - - - -
01/12:00am 6.1 NNW 3 4 1017.8 - 0.0 - - - - - - -
 
Date/Time
EST
Temp

°C
Wind Pressure Rain
since 9am
mm
Weather Cloud Vis
km
Sea
Height
m
Swell
Dir
 
Speed
knots
Gust
knots
hPa Trend Height
m
Period
s
Dir
31/11:30pm 6.8 NNW 2 3 1017.9 - 0.0 - - - - - - -
31/11:00pm 7.5 NW 2 3 1018.0 - 0.0 - - - - - - -
31/10:30pm 7.6 NW 2 3 1018.2 - 0.0 - - - - - - -
31/10:00pm 7.3 NNW 3 4 1018.3 - 0.0 - - - - - - -
31/09:30pm 7.2 NNW 2 3 1018.4 - 0.0 - - - - - - -
31/09:00pm 6.8 N 3 4 1018.4 - 0.0 - - - - - - -
31/08:30pm 6.7 NNW 4 4 1018.5 - 0.0 - - - - - - -
31/08:00pm 6.5 NNW 4 5 1018.3 - 0.0 - - - - - - -
31/07:30pm 6.9 NNW 3 4 1018.2 - 0.0 - - - - - - -
31/07:00pm 8.0 NW 3 5 1018.1 - 0.0 - - - - - - -
31/06:30pm 8.5 NW 3 4 1018.1 - 0.0 - - - - - - -
31/06:00pm 9.5 W 3 6 1018.1 - 0.0 - - - - - - -
31/05:30pm 10.3 W 5 6 1018.1 - 0.0 - - - - - - -
31/05:00pm 10.7 WSW 6 10 1017.9 - 0.0 - - - - - - -
31/04:30pm 10.7 SW 6 9 1017.8 - 0.0 - - - - - - -
31/04:00pm 11.2 SW 6 9 1017.8 - 0.0 - - - - - - -
31/03:30pm 11.1 SSW 6 8 1018.0 - 0.0 - - - - - - -
31/03:00pm 11.4 WSW 6 10 1017.9 - 0.0 - - - - - - -
31/02:30pm 11.3 WSW 6 9 1018.0 - 0.0 - - - - - - -
31/02:00pm 11.7 W 6 8 1018.1 - 0.0 - - - - - - -
31/01:30pm 11.7 W 7 9 1018.2 - 0.0 - - - - - - -
31/01:00pm 11.0 W 6 9 1018.7 - 0.0 - - - - - - -
31/12:30pm 11.1 W 5 8 1018.8 - 0.0 - - - - - - -
31/12:00pm 10.6 W 6 10 1019.3 - 0.0 - - - - - - -
31/11:30am 10.7 W 6 10 1019.7 - 0.0 - - - - - - -
31/11:00am 10.4 W 7 11 1019.9 - 0.0 - - - - - - -
31/10:30am 9.6 WNW 6 11 1020.0 - 0.0 - - - - - - -
31/10:00am 9.5 WNW 6 10 1020.2 - 0.0 - - - - - - -
31/09:30am 8.7 WNW 7 10 1020.5 - 0.0 - - - - - - -
31/09:00am 8.0 WNW 5 8 1020.6 - 0.2 - - - - - - -
31/08:30am 7.7 WNW 4 6 1020.6 - 0.2 - - - - - - -
31/08:00am 7.2 NW 5 8 1020.5 - 0.2 - - - - - - -
31/07:30am 6.7 NNW 4 5 1020.3 - 0.2 - - - - - - -
31/07:00am 6.0 NW 5 8 1020.2 - 0.2 - - - - - - -
31/06:30am 5.8 NW 5 7 1020.1 - 0.2 - - - - - - -
31/06:00am 6.1 NW 5 7 1020.1 - 0.2 - - - - - - -
31/05:30am 6.6 NW 4 7 1020.0 - 0.2 - - - - - - -
31/05:00am 6.4 NW 5 7 1020.0 - 0.2 - - - - - - -
31/04:30am 6.3 NW 4 7 1020.0 - 0.2 - - - - - - -
31/04:00am 6.4 NW 4 6 1020.1 - 0.2 - - - - - - -
31/03:30am 6.1 NNW 4 6 1020.1 - 0.2 - - - - - - -
31/03:00am 5.6 NNW 4 6 1020.3 - 0.2 - - - - - - -
31/02:30am 5.1 NNW 3 5 1020.7 - 0.2 - - - - - - -
31/02:00am 4.7 WNW 2 2 1021.0 - 0.2 - - - - - - -
31/01:30am 4.9 N 4 5 1021.0 - 0.2 - - - - - - -
31/01:00am 4.6 NNW 4 5 1021.3 - 0.2 - - - - - - -
31/12:30am 5.0 NNW 3 4 1021.7 - 0.2 - - - - - - -
31/12:00am 5.0 NNW 4 5 1021.7 - 0.2 - - - - - - -
 
Date/Time
EST
Temp

°C
Wind Pressure Rain
since 9am
mm
Weather Cloud Vis
km
Sea
Height
m
Swell
Dir
 
Speed
knots
Gust
knots
hPa Trend Height
m
Period
s
Dir
30/11:30pm 5.2 N 3 4 1021.9 - 0.2 - - - - - - -
30/11:00pm 5.5 N 3 4 1022.1 - 0.2 - - - - - - -
30/10:30pm 5.4 N 4 5 1022.3 - 0.2 - - - - - - -
30/10:00pm 4.8 NW 2 2 1022.7 - 0.2 - - - - - - -
30/09:30pm 5.6 N 3 4 1022.6 - 0.2 - - - - - - -
30/09:00pm 6.5 N 4 5 1022.6 - 0.2 Rain - - - - - -
30/08:30pm 6.9 N 4 4 1022.6 - 0.0 - - - - - - -
30/08:00pm 7.0 N 4 5 1022.5 - 0.0 - - - - - - -
30/07:30pm 7.0 NNW 2 2 1022.6 - 0.0 - - - - - - -
30/07:00pm 7.9 NW 2 3 1022.5 - 0.0 - - - - - - -
30/06:30pm 8.5 NNW 1 2 1022.3 - 0.0 - - - - - - -
30/06:00pm 9.6 WSW 2 4 1022.2 - 0.0 - - - - - - -
30/05:30pm 9.9 SW 4 7 1022.0 - 0.0 - - - - - - -
30/05:00pm 10.2 WSW 5 7 1021.8 - 0.0 - - - - - - -
30/04:30pm 10.4 SW 7 12 1021.9 - 0.0 - - - - - - -
30/04:00pm 10.7 SW 7 11 1021.9 - 0.0 - - - - - - -
30/03:30pm 11.1 WNW 5 9 1022.0 - 0.0 - - - - - - -
30/03:00pm 10.1 WNW 5 8 1022.1 - 0.0 - - - - - - -
30/02:30pm 10.3 W 5 7 1022.1 - 0.0 - - - - - - -
30/02:00pm 9.7 SW 7 13 1022.1 - 0.0 - - - - - - -
30/01:30pm 11.0 WSW 9 13 1021.9 - 0.0 - - - - - - -
30/01:00pm 10.5 SW 11 17 1022.2 - 0.0 - - - - - - -
30/12:30pm 10.5 SW 9 12 1022.3 - 0.0 - - - - - - -
30/12:00pm 10.8 WSW 8 13 1022.6 - 0.0 - - - - - - -
30/11:30am 10.6 SW 7 10 1023.0 - 0.0 - - - - - - -
30/11:00am 10.4 SW 7 10 1023.2 - 0.0 - - - - - - -
30/10:30am 10.7 SW 9 13 1023.3 - 0.0 - - - - - - -
30/10:00am 11.0 WSW 7 10 1023.3 - 0.0 - - - - - - -
30/09:30am 10.2 W 5 7 1023.4 - 0.0 - - - - - - -
30/09:00am 8.8 W 5 6 1023.3 - 4.6 - - - - - - -
30/08:30am 8.8 WNW 4 5 1023.3 - 4.6 - - - - - - -
30/08:00am 8.2 W 4 6 1023.3 - 4.6 - - - - - - -
30/07:30am 8.1 W 5 7 1023.0 - 4.6 - - - - - - -
30/07:00am 8.0 W 4 7 1022.7 - 4.6 - - - - - - -
30/06:30am 8.0 WNW 5 7 1022.5 - 4.6 - - - - - - -
30/06:00am 8.1 W 5 8 1022.3 - 4.6 Rain - - - - - -
30/05:30am 8.3 W 5 8 1022.1 - 4.4 - - - - - - -
30/05:00am 8.4 W 5 8 1022.0 - 4.4 - - - - - - -
30/04:30am 8.3 WNW 5 7 1021.8 - 4.4 - - - - - - -
30/04:00am 8.5 W 5 7 1021.7 - 4.4 - - - - - - -
30/03:30am 8.5 WNW 5 10 1021.7 - 4.4 - - - - - - -
30/03:00am 8.5 W 6 10 1021.7 - 4.4 - - - - - - -
30/02:30am 8.5 W 5 9 1021.9 - 4.4 - - - - - - -
30/02:00am 8.5 WNW 5 8 1022.1 - 4.4 - - - - - - -
30/01:30am 8.5 W 4 7 1022.4 - 4.4 - - - - - - -
30/01:00am 8.5 WNW 4 6 1022.5 - 4.4 - - - - - - -
30/12:30am 8.5 WNW 3 5 1022.6 - 4.4 - - - - - - -
30/12:00am 8.4 WNW 4 7 1022.6 - 4.4 Recent precip. - - - - - -
 
Date/Time
EST
Temp

°C
Wind Pressure Rain
since 9am
mm
Weather Cloud Vis
km
Sea
Height
m
Swell
Dir
 
Speed
knots
Gust
knots
hPa Trend Height
m
Period
s
Dir
29/11:30pm 8.6 W 6 9 1022.7 - 4.2 - - - - - - -
29/11:00pm 8.8 W 6 10 1023.0 - 4.0 - - - - - - -
29/10:30pm 8.8 SW 6 9 1023.0 - 2.8 - - - - - - -

Other Formats:

Comma delimited format used in spreadsheet applications
http://www.bom.gov.au/fwo/IDV60701/IDV60701.95918.axf

JavaScript Object Notation format (JSON) in row-major order
http://www.bom.gov.au/fwo/IDV60701/IDV60701.95918.json